Time,TemperatureF,DewpointF,PressureIn,WindDirection,WindDirectionDegrees,WindSpeedMPH,WindSpeedGustMPH,Humidity,HourlyPrecipIn,Conditions,Clouds,dailyrainin,SoftwareType,DateUTC
2013-02-04 00:02:00,3.0,-2.0,30.08,SW,223,0.0,0.0,78,0.00,,,0.00,,2013-02-04 06:02:00,
2013-02-04 00:11:00,3.0,-2.0,30.08,SW,223,0.0,0.0,78,0.00,,,0.00,,2013-02-04 06:11:00,
2013-02-04 00:21:00,2.0,-3.0,30.09,SW,223,0.0,0.0,79,0.00,,,0.00,,2013-02-04 06:21:00,
2013-02-04 00:32:00,1.0,-4.0,30.09,SW,223,0.0,0.0,80,0.00,,,0.00,,2013-02-04 06:32:00,
2013-02-04 00:41:00,1.0,-4.0,30.09,SW,223,0.0,0.0,80,0.00,,,0.00,,2013-02-04 06:41:00,
2013-02-04 00:51:00,1.0,-3.0,30.09,SW,223,0.0,0.0,81,0.00,,,0.00,,2013-02-04 06:51:00,
2013-02-04 01:02:00,0.0,-4.0,30.09,SW,223,0.0,0.0,82,0.00,,,0.00,,2013-02-04 07:02:00,
2013-02-04 01:11:00,0.0,-4.0,30.09,SW,223,0.0,0.0,82,0.00,,,0.00,,2013-02-04 07:11:00,
2013-02-04 01:21:00,0.0,-4.0,30.09,SW,223,0.0,2.0,83,0.00,,,0.00,,2013-02-04 07:21:00,
2013-02-04 01:32:00,-1.0,-5.0,30.09,SW,223,0.0,0.0,83,0.00,,,0.00,,2013-02-04 07:32:00,
2013-02-04 01:42:00,-1.0,-5.0,30.09,SW,223,0.0,0.0,83,0.00,,,0.00,,2013-02-04 07:42:00,
2013-02-04 01:52:00,-3.0,-7.0,30.08,SW,223,0.0,0.0,83,0.00,,,0.00,,2013-02-04 07:52:00,
2013-02-04 02:01:00,-3.0,-7.0,30.09,SW,223,0.0,1.0,83,0.00,,,0.00,,2013-02-04 08:01:00,
2013-02-04 02:11:00,-3.0,-7.0,30.09,SW,223,0.0,1.0,83,0.00,,,0.00,,2013-02-04 08:11:00,
2013-02-04 02:21:00,-4.0,-8.0,30.09,SW,223,0.0,0.0,83,0.00,,,0.00,,2013-02-04 08:21:00,
2013-02-04 02:31:00,-4.0,-8.0,30.09,SW,223,0.0,1.0,83,0.00,,,0.00,,2013-02-04 08:31:00,
2013-02-04 02:42:00,-4.0,-8.0,30.09,SW,223,0.0,1.0,83,0.00,,,0.00,,2013-02-04 08:42:00,
2013-02-04 02:52:00,-5.0,-9.0,30.10,SW,223,0.0,0.0,83,0.00,,,0.00,,2013-02-04 08:52:00,
2013-02-04 03:02:00,-5.0,-9.0,30.10,SW,223,0.0,0.0,83,0.00,,,0.00,,2013-02-04 09:02:00,
2013-02-04 03:11:00,-5.0,-9.0,30.10,SW,223,0.0,0.0,83,0.00,,,0.00,,2013-02-04 09:11:00,
2013-02-04 03:21:00,-5.0,-9.0,30.10,SW,223,0.0,2.0,84,0.00,,,0.00,,2013-02-04 09:21:00,
2013-02-04 03:32:00,-6.0,-10.0,30.09,SW,223,0.0,1.0,83,0.00,,,0.00,,2013-02-04 09:32:00,
2013-02-04 03:41:00,-6.0,-10.0,30.09,SW,223,0.0,1.0,83,0.00,,,0.00,,2013-02-04 09:41:00,
2013-02-04 03:51:00,-5.0,-9.0,30.09,SW,223,0.0,1.0,84,0.00,,,0.00,,2013-02-04 09:51:00,
2013-02-04 04:01:00,-5.0,-9.0,30.09,SW,223,0.0,0.0,84,0.00,,,0.00,,2013-02-04 10:01:00,
2013-02-04 04:11:00,-5.0,-9.0,30.09,SW,223,0.0,0.0,84,0.00,,,0.00,,2013-02-04 10:11:00,
2013-02-04 04:21:00,-5.0,-9.0,30.09,SW,223,0.0,1.0,84,0.00,,,0.00,,2013-02-04 10:21:00,
2013-02-04 04:32:00,-6.0,-10.0,30.09,SW,223,0.0,1.0,83,0.00,,,0.00,,2013-02-04 10:32:00,
2013-02-04 04:41:00,-6.0,-10.0,30.09,SW,223,0.0,1.0,83,0.00,,,0.00,,2013-02-04 10:41:00,
2013-02-04 04:51:00,-6.0,-10.0,30.10,SW,223,0.0,0.0,83,0.00,,,0.00,,2013-02-04 10:51:00,
2013-02-04 05:02:00,-7.0,-11.0,30.10,SW,223,0.0,1.0,83,0.00,,,0.00,,2013-02-04 11:02:00,
2013-02-04 05:11:00,-7.0,-11.0,30.10,SW,223,0.0,1.0,83,0.00,,,0.00,,2013-02-04 11:11:00,
2013-02-04 05:22:00,-7.0,-11.0,30.10,SW,223,0.0,1.0,83,0.00,,,0.00,,2013-02-04 11:22:00,
2013-02-04 05:32:00,-7.0,-11.0,30.10,SW,223,0.0,1.0,83,0.00,,,0.00,,2013-02-04 11:32:00,
2013-02-04 05:42:00,-7.0,-11.0,30.10,SW,223,0.0,1.0,83,0.00,,,0.00,,2013-02-04 11:42:00,
2013-02-04 05:52:00,-7.0,-11.0,30.11,SW,223,0.0,1.0,83,0.00,,,0.00,,2013-02-04 11:52:00,
2013-02-04 06:02:00,-6.0,-10.0,30.10,SW,223,0.0,1.0,84,0.00,,,0.00,,2013-02-04 12:02:00,
2013-02-04 06:12:00,-6.0,-10.0,30.10,SW,223,0.0,1.0,84,0.00,,,0.00,,2013-02-04 12:12:00,
2013-02-04 06:22:00,-6.0,-10.0,30.11,SW,223,0.0,1.0,83,0.00,,,0.00,,2013-02-04 12:22:00,
2013-02-04 06:32:00,-6.0,-10.0,30.11,SW,223,0.0,1.0,83,0.00,,,0.00,,2013-02-04 12:32:00,
2013-02-04 06:42:00,-6.0,-10.0,30.11,SW,223,0.0,1.0,83,0.00,,,0.00,,2013-02-04 12:42:00,
2013-02-04 06:52:00,-7.0,-11.0,30.11,SW,223,0.0,1.0,83,0.00,,,0.00,,2013-02-04 12:52:00,
2013-02-04 07:02:00,-7.0,-11.0,30.11,SW,223,0.0,1.0,83,0.00,,,0.00,,2013-02-04 13:02:00,
2013-02-04 07:12:00,-7.0,-11.0,30.11,SW,223,0.0,0.0,84,0.00,,,0.00,,2013-02-04 13:12:00,
2013-02-04 07:21:00,-7.0,-11.0,30.11,SW,223,0.0,0.0,84,0.00,,,0.00,,2013-02-04 13:21:00,
2013-02-04 07:33:00,-7.0,-11.0,30.11,SW,223,0.0,2.0,84,0.00,,,0.00,,2013-02-04 13:33:00,
2013-02-04 07:42:00,-7.0,-11.0,30.11,SW,223,0.0,2.0,84,0.00,,,0.00,,2013-02-04 13:42:00,
2013-02-04 07:51:00,-6.0,-10.0,30.11,SW,223,0.0,1.0,84,0.00,,,0.00,,2013-02-04 13:51:00,
2013-02-04 08:03:00,-6.0,-10.0,30.11,SW,223,0.0,1.0,84,0.00,,,0.00,,2013-02-04 14:03:00,
2013-02-04 08:11:00,-6.0,-10.0,30.11,SW,223,0.0,1.0,84,0.00,,,0.00,,2013-02-04 14:11:00,
2013-02-04 08:22:00,-4.0,-8.0,30.10,SW,223,0.0,0.0,84,0.00,,,0.00,,2013-02-04 14:22:00,
2013-02-04 08:32:00,-3.0,-6.0,30.11,SW,223,0.0,0.0,85,0.00,,,0.00,,2013-02-04 14:32:00,
2013-02-04 08:42:00,-3.0,-6.0,30.11,SW,223,0.0,0.0,85,0.00,,,0.00,,2013-02-04 14:42:00,
2013-02-04 08:52:00,-1.0,-4.0,30.11,SW,223,0.0,3.0,85,0.00,,,0.00,,2013-02-04 14:52:00,
2013-02-04 09:03:00,0.0,-3.0,30.11,SW,236,1.0,3.0,85,0.00,,,0.00,,2013-02-04 15:03:00,
2013-02-04 09:23:00,1.0,-3.0,30.11,SW,229,1.0,4.0,83,0.00,,,0.00,,2013-02-04 15:23:00,
2013-02-04 09:33:00,2.0,-2.0,30.11,SW,215,1.0,5.0,81,0.00,,,0.00,,2013-02-04 15:33:00,
2013-02-04 09:43:00,2.0,-2.0,30.11,SW,215,1.0,5.0,81,0.00,,,0.00,,2013-02-04 15:43:00,
2013-02-04 09:52:00,4.0,-1.0,30.11,WSW,239,2.0,5.0,79,0.00,,,0.00,,2013-02-04 15:52:00,
2013-02-04 10:03:00,5.0,-1.0,30.11,West,262,0.0,5.0,77,0.00,,,0.00,,2013-02-04 16:03:00,
2013-02-04 10:11:00,5.0,-1.0,30.11,West,262,0.0,5.0,77,0.00,,,0.00,,2013-02-04 16:11:00,
2013-02-04 10:22:00,6.0,0.0,30.11,WNW,282,2.0,6.0,74,0.00,,,0.00,,2013-02-04 16:22:00,
2013-02-04 10:33:00,6.0,-1.0,30.12,SW,222,2.0,6.0,72,0.00,,,0.00,,2013-02-04 16:33:00,
2013-02-04 10:42:00,6.0,-1.0,30.12,SW,222,2.0,6.0,72,0.00,,,0.00,,2013-02-04 16:42:00,
2013-02-04 10:51:00,7.0,0.0,30.12,SW,221,1.0,7.0,71,0.00,,,0.00,,2013-02-04 16:51:00,
2013-02-04 11:02:00,8.0,0.0,30.12,West,279,2.0,6.0,69,0.00,,,0.00,,2013-02-04 17:02:00,
2013-02-04 11:11:00,8.0,0.0,30.12,West,279,2.0,6.0,69,0.00,,,0.00,,2013-02-04 17:11:00,
2013-02-04 11:21:00,9.0,0.0,30.12,SW,219,2.0,4.0,67,0.00,,,0.00,,2013-02-04 17:21:00,
2013-02-04 11:32:00,9.0,0.0,30.12,West,281,1.0,5.0,65,0.00,,,0.00,,2013-02-04 17:32:00,
2013-02-04 11:42:00,9.0,0.0,30.12,West,281,1.0,5.0,65,0.00,,,0.00,,2013-02-04 17:42:00,
2013-02-04 11:51:00,10.0,0.0,30.11,SW,236,1.0,5.0,62,0.00,,,0.00,,2013-02-04 17:51:00,
2013-02-04 12:03:00,10.0,-1.0,30.11,WNW,287,2.0,5.0,60,0.00,,,0.00,,2013-02-04 18:03:00,
2013-02-04 12:11:00,10.0,-1.0,30.11,WNW,287,2.0,5.0,60,0.00,,,0.00,,2013-02-04 18:11:00,
2013-02-04 12:22:00,11.0,-1.0,30.10,NNW,337,2.0,4.0,58,0.00,,,0.00,,2013-02-04 18:22:00,
2013-02-04 12:32:00,11.0,-2.0,30.09,WSW,256,1.0,5.0,56,0.00,,,0.00,,2013-02-04 18:32:00,
2013-02-04 12:42:00,11.0,-2.0,30.09,WSW,256,1.0,5.0,56,0.00,,,0.00,,2013-02-04 18:42:00,
2013-02-04 12:52:00,12.0,-1.0,30.09,SSW,209,0.0,5.0,55,0.00,,,0.00,,2013-02-04 18:52:00,
2013-02-04 13:02:00,13.0,0.0,30.07,South,183,2.0,5.0,56,0.00,,,0.00,,2013-02-04 19:02:00,
2013-02-04 13:11:00,13.0,0.0,30.07,South,183,2.0,5.0,56,0.00,,,0.00,,2013-02-04 19:11:00,
2013-02-04 13:22:00,13.0,0.0,30.06,SSE,165,2.0,5.0,54,0.00,,,0.00,,2013-02-04 19:22:00,
2013-02-04 13:32:00,13.0,0.0,30.05,SW,221,2.0,5.0,55,0.00,,,0.00,,2013-02-04 19:32:00,
2013-02-04 13:42:00,13.0,0.0,30.05,SW,221,2.0,5.0,55,0.00,,,0.00,,2013-02-04 19:42:00,
2013-02-04 13:51:00,13.0,0.0,30.05,SSE,160,3.0,6.0,54,0.00,,,0.00,,2013-02-04 19:51:00,
2013-02-04 14:02:00,14.0,0.0,30.05,WSW,240,1.0,5.0,53,0.00,,,0.00,,2013-02-04 20:02:00,
2013-02-04 14:12:00,14.0,0.0,30.05,WSW,240,1.0,5.0,53,0.00,,,0.00,,2013-02-04 20:12:00,
2013-02-04 14:21:00,14.0,-1.0,30.04,South,169,1.0,6.0,50,0.00,,,0.00,,2013-02-04 20:21:00,
2013-02-04 14:32:00,14.0,-2.0,30.03,WNW,300,2.0,6.0,48,0.00,,,0.00,,2013-02-04 20:32:00,
2013-02-04 14:42:00,14.0,-2.0,30.03,WNW,300,2.0,6.0,48,0.00,,,0.00,,2013-02-04 20:42:00,
2013-02-04 14:52:00,14.0,-4.0,30.02,South,180,2.0,6.0,44,0.00,,,0.00,,2013-02-04 20:52:00,
2013-02-04 15:02:00,15.0,-3.0,30.03,West,277,1.0,4.0,44,0.00,,,0.00,,2013-02-04 21:02:00,
2013-02-04 15:11:00,15.0,-3.0,30.03,West,277,1.0,4.0,44,0.00,,,0.00,,2013-02-04 21:11:00,
2013-02-04 15:22:00,15.0,-4.0,30.02,NNW,338,1.0,6.0,42,0.00,,,0.00,,2013-02-04 21:22:00,
2013-02-04 15:31:00,15.0,-4.0,30.02,WNW,298,2.0,6.0,42,0.00,,,0.00,,2013-02-04 21:31:00,
2013-02-04 15:42:00,15.0,-4.0,30.02,WNW,298,2.0,6.0,42,0.00,,,0.00,,2013-02-04 21:42:00,
2013-02-04 15:52:00,15.0,-5.0,30.02,WNW,295,2.0,5.0,40,0.00,,,0.00,,2013-02-04 21:52:00,
2013-02-04 16:02:00,15.0,-5.0,30.02,WSW,254,0.0,5.0,40,0.00,,,0.00,,2013-02-04 22:02:00,
2013-02-04 16:12:00,15.0,-5.0,30.02,WSW,254,0.0,5.0,40,0.00,,,0.00,,2013-02-04 22:12:00,
2013-02-04 16:21:00,15.0,-4.0,30.01,West,271,1.0,3.0,42,0.00,,,0.00,,2013-02-04 22:21:00,
2013-02-04 16:32:00,15.0,-5.0,30.01,West,268,0.0,3.0,40,0.00,,,0.00,,2013-02-04 22:32:00,
2013-02-04 16:42:00,15.0,-5.0,30.01,West,268,0.0,3.0,40,0.00,,,0.00,,2013-02-04 22:42:00,
2013-02-04 16:52:00,15.0,-5.0,30.00,SW,219,2.0,5.0,40,0.00,,,0.00,,2013-02-04 22:52:00,
2013-02-04 17:01:00,15.0,-5.0,29.99,WSW,242,1.0,6.0,40,0.00,,,0.00,,2013-02-04 23:01:00,
2013-02-04 17:11:00,15.0,-5.0,29.99,WSW,242,1.0,6.0,40,0.00,,,0.00,,2013-02-04 23:11:00,
2013-02-04 17:21:00,15.0,-5.0,29.98,SW,232,0.0,3.0,40,0.00,,,0.00,,2013-02-04 23:21:00,
2013-02-04 17:32:00,15.0,-5.0,29.98,SW,232,0.0,3.0,40,0.00,,,0.00,,2013-02-04 23:32:00,
2013-02-04 17:42:00,15.0,-5.0,29.98,SW,232,0.0,3.0,40,0.00,,,0.00,,2013-02-04 23:42:00,
2013-02-04 17:52:00,13.0,-3.0,29.98,WSW,250,0.0,1.0,47,0.00,,,0.00,,2013-02-04 23:52:00,
2013-02-04 18:01:00,12.0,-3.0,29.98,WSW,250,0.0,1.0,50,0.00,,,0.00,,2013-02-05 00:01:00,
2013-02-04 18:11:00,12.0,-3.0,29.98,WSW,250,0.0,1.0,50,0.00,,,0.00,,2013-02-05 00:11:00,
2013-02-04 18:22:00,11.0,-2.0,29.97,WSW,250,0.0,1.0,55,0.00,,,0.00,,2013-02-05 00:22:00,
2013-02-04 18:31:00,9.0,-2.0,29.96,WSW,250,0.0,0.0,59,0.00,,,0.00,,2013-02-05 00:31:00,
2013-02-04 18:42:00,9.0,-2.0,29.96,WSW,250,0.0,0.0,59,0.00,,,0.00,,2013-02-05 00:42:00,
2013-02-04 18:52:00,9.0,-3.0,29.96,WSW,250,0.0,2.0,56,0.00,,,0.00,,2013-02-05 00:52:00,
2013-02-04 19:01:00,10.0,-3.0,29.96,WSW,250,1.0,3.0,54,0.00,,,0.00,,2013-02-05 01:01:00,
2013-02-04 19:11:00,10.0,-3.0,29.96,WSW,250,1.0,3.0,54,0.00,,,0.00,,2013-02-05 01:11:00,
2013-02-04 19:22:00,10.0,-3.0,29.95,South,188,1.0,3.0,54,0.00,,,0.00,,2013-02-05 01:22:00,
2013-02-04 19:32:00,10.0,-3.0,29.95,South,188,0.0,3.0,55,0.00,,,0.00,,2013-02-05 01:32:00,
2013-02-04 19:42:00,10.0,-3.0,29.95,South,188,0.0,3.0,55,0.00,,,0.00,,2013-02-05 01:42:00,
2013-02-04 19:52:00,9.0,-3.0,29.95,South,188,0.0,2.0,57,0.00,,,0.00,,2013-02-05 01:52:00,
2013-02-04 20:01:00,9.0,-3.0,29.95,South,188,0.0,2.0,57,0.00,,,0.00,,2013-02-05 02:01:00,
2013-02-04 20:11:00,9.0,-3.0,29.95,South,188,0.0,2.0,57,0.00,,,0.00,,2013-02-05 02:11:00,
2013-02-04 20:22:00,10.0,-3.0,29.94,WSW,254,0.0,3.0,54,0.00,,,0.00,,2013-02-05 02:22:00,
2013-02-04 20:32:00,10.0,-3.0,29.93,South,189,1.0,3.0,54,0.00,,,0.00,,2013-02-05 02:32:00,
2013-02-04 20:41:00,10.0,-3.0,29.93,South,189,1.0,3.0,54,0.00,,,0.00,,2013-02-05 02:41:00,
2013-02-04 20:52:00,10.0,-3.0,29.93,South,182,0.0,3.0,55,0.00,,,0.00,,2013-02-05 02:52:00,
2013-02-04 21:02:00,10.0,-3.0,29.91,SSW,206,1.0,3.0,56,0.00,,,0.00,,2013-02-05 03:02:00,
2013-02-04 21:11:00,10.0,-3.0,29.91,SSW,206,1.0,3.0,56,0.00,,,0.00,,2013-02-05 03:11:00,
2013-02-04 21:21:00,11.0,-2.0,29.91,SSW,205,2.0,5.0,55,0.00,,,0.00,,2013-02-05 03:21:00,
2013-02-04 21:32:00,11.0,-2.0,29.91,South,178,1.0,4.0,56,0.00,,,0.00,,2013-02-05 03:32:00,
2013-02-04 21:42:00,11.0,-2.0,29.91,South,178,1.0,4.0,56,0.00,,,0.00,,2013-02-05 03:42:00,
2013-02-04 21:52:00,11.0,-2.0,29.90,South,184,0.0,3.0,56,0.00,,,0.00,,2013-02-05 03:52:00,
2013-02-04 22:01:00,11.0,-1.0,29.90,South,184,0.0,3.0,57,0.00,,,0.00,,2013-02-05 04:01:00,
2013-02-04 22:11:00,11.0,-1.0,29.90,South,184,0.0,3.0,57,0.00,,,0.00,,2013-02-05 04:11:00,
2013-02-04 22:21:00,12.0,0.0,29.89,South,183,1.0,3.0,57,0.00,,,0.00,,2013-02-05 04:21:00,
2013-02-04 22:32:00,12.0,0.0,29.88,SSE,161,1.0,5.0,57,0.00,,,0.00,,2013-02-05 04:32:00,
2013-02-04 22:42:00,12.0,0.0,29.88,SSE,161,1.0,5.0,57,0.00,,,0.00,,2013-02-05 04:42:00,
2013-02-04 22:52:00,12.0,0.0,29.87,SSE,167,1.0,4.0,58,0.00,,,0.00,,2013-02-05 04:52:00,
2013-02-04 23:02:00,12.0,0.0,29.88,South,185,1.0,7.0,59,0.00,,,0.00,,2013-02-05 05:02:00,
2013-02-04 23:11:00,12.0,0.0,29.88,South,185,1.0,7.0,59,0.00,,,0.00,,2013-02-05 05:11:00,
2013-02-04 23:21:00,12.0,0.0,29.88,WSW,258,1.0,4.0,59,0.00,,,0.00,,2013-02-05 05:21:00,
2013-02-04 23:32:00,12.0,0.0,29.87,WSW,252,1.0,4.0,59,0.00,,,0.00,,2013-02-05 05:32:00,
2013-02-04 23:42:00,12.0,0.0,29.87,WSW,252,1.0,4.0,59,0.00,,,0.00,,2013-02-05 05:42:00,
2013-02-04 23:52:00,13.0,1.0,29.87,SSE,167,2.0,7.0,59,0.00,,,0.00,,2013-02-05 05:52:00,